Tracking 20241 objects as of 28-Jan-2020
HD Live streaming from Space Station
objects crossing your sky now

BEESAT-4

Track BEESAT-4 now!
10-day predictions
BEESAT-4 is classified as:


NORAD ID: 41619
Int'l Code: 2016-040W
Perigee: 495.1 km
Apogee: 508.9 km
Inclination: 97.3 °
Period: 94.5 minutes
Semi major axis: 6873 km
RCS: Unknown
Launch date: June 22, 2016
Source: Germany (GER)
Launch site: SRIHARIKOTA (SRI)

Uplink (MHz):
Downlink (MHz): 435.950
Beacon (MHz): 435.950
Mode: 4800bps GMSK CW
Call sign: DP0BEH
Status: Active

aabbcc
Your satellite tracking list
Your tracking list is empty




NASA's NSSDC Master Catalog

Two Line Element Set (TLE):
1 41619U 16040W   20028.43988116  .00000962  00000-0  43048-4 0  9994
2 41619  97.3399  91.1915 0010035 323.2528  36.8020 15.23638223187924
Source of the keplerian elements: AFSPC